Regional Weather Roundup
Issued by NWS

Home | Current Version | Previous Version | Graphics & Text | Print | Product List | Glossary On
Versions: 1 2 3 4 5 6 7 8 9 10 11 12 13 14 15 16 17 18 19 20 21 22 23 24 25 26 27 28 29 30 31 32 33 34 35 36 37 38 39 40 41 42 43 44 45 46 47 48 49 50
000
ASUS44 KMEG 010600
RWRTN
TENNESSEE HOURLY STATE WEATHER ROUNDUP
NATIONAL WEATHER SERVICE MEMPHIS TN
1200 AM CST SUN FEB 01 2015

TNZ002-004-019-021-049-052-054-088>092-010700-
WEST TENNESSEE

CITY           SKY/WX    TMP DP  RH WIND       PRES   REMARKS
MEMPHIS INTL   CLOUDY    50  23  34 SE12      30.04F
NWS MEMPHIS      N/A     49 N/A N/A MISG        N/A
JACKSON        CLOUDY    48  19  31 S6        30.08F
DYERSBURG      CLOUDY   N/A N/A N/A S5        30.09F
UNION CITY     PTCLDY    41  21  45 CALM      30.08F
PARIS          MOCLDY    45  16  31 SE13      30.07F
$$

TNZ008-025-027-028-033-062-065-066-010700-
NORTH MIDDLE TENNESSEE

CITY           SKY/WX    TMP DP  RH WIND       PRES   REMARKS
NASHVILLE      CLOUDY    41  20  43 CALM      30.16F
CLARKSVILLE    CLOUDY    43  17  35 SE7       30.13F
COOKEVILLE     CLEAR     43   7  22 S9        30.17F
CROSSVILLE     CLOUDY    39  11  31 SE6       30.19F WCI  35
$$

TNZ061-075-076-078-094-096-097-010700-
SOUTH MIDDLE TENNESSEE

CITY           SKY/WX    TMP DP  RH WIND       PRES   REMARKS
FAYETTEVILLE   CLEAR     41  19  42 MISG      30.17F
TULLAHOMA      PTCLDY    43  10  26 SE3       30.18F
WINCHESTER     CLEAR     45  16  31 SE10      30.19F
COLUMBIA       PTCLDY    39  25  56 CALM      30.14F
SHELBYVILLE    PTCLDY    45  18  33 SE7       30.18F
$$

TNZ017-018-042-046-047-010700-
NORTHEAST TENNESSEE

CITY           SKY/WX    TMP DP  RH WIND       PRES   REMARKS
TRI CITIES     CLOUDY    33  23  66 E3        30.26S
ELIZABETHTON   CLOUDY    30  19  64 CALM      30.26R
$$

TNZ012-013-036-069-073-074-010700-
CENTRAL EAST TENNESSEE

CITY           SKY/WX    TMP DP  RH WIND       PRES   REMARKS
KNOXVILLE      CLOUDY    38  23  55 CALM      30.25F
OAK RIDGE      CLOUDY    39  23  52 CALM      30.26F
$$

TNZ083-085-099-010700-
SOUTHEAST TENNESSEE

CITY           SKY/WX    TMP DP  RH WIND       PRES   REMARKS
CHATTANOOGA    CLOUDY    41  25  53 CALM      30.24F
$$

SKY/WX REPORTED AS FAIR MEANS FEW OR NO CLOUDS BELOW
12 THOUSAND FEET.




USA.gov is the U.S. government's official web portal to all federal, state and local government web resources and services.